ISR271 LLBG-EDDS

Flight info

Callsign ISR271
Flight time 3h 56m
Altitude 36000
Route SUVAS N128 OTHON UN128 RDS UL609 MES UG18 DIKNI/N0438F380 UG18 FSK UL608 DISOR DCT LONTA UL608 DOLEV DCT GORPA DCT ERKIR L608 KOGOL M726 MAH/N0367F240 L173 DODIL T127 TEKSI TEKSI1W
Aircraft A320/M-SDE2FGHIJ1LORVWY/SB1

Departure

Time 2026-05-06 17:58
Airport Ben Gurion International Airport (LLBG)

Arrival

Time 2026-05-06 21:55
Airport Stuttgart Airport (EDDS)
Time Latitude Longitude Altitude Speed Heading
2026-05-06 17:25 32.00370 34.87636 117 ft 0 kts 272°
2026-05-06 17:48 32.00370 34.87649 116 ft 3 kts 272°
2026-05-06 17:49 32.00369 34.87676 117 ft 3 kts 272°
2026-05-06 17:49 32.00368 34.87700 117 ft 3 kts 273°
2026-05-06 17:49 32.00364 34.87724 116 ft 3 kts 311°
2026-05-06 17:49 32.00348 34.87735 115 ft 3 kts 359°
2026-05-06 17:50 32.00326 34.87732 117 ft 3 kts 20°
2026-05-06 17:50 32.00309 34.87723 115 ft 0 kts 31°
2026-05-06 17:52 32.00329 34.87736 117 ft 7 kts 29°
2026-05-06 17:52 32.00392 34.87779 119 ft 14 kts 31°
2026-05-06 17:53 32.00492 34.87850 119 ft 18 kts 31°
2026-05-06 17:53 32.00606 34.87932 116 ft 20 kts 31°
2026-05-06 17:53 32.00733 34.88022 118 ft 22 kts 32°
2026-05-06 17:53 32.00865 34.88119 118 ft 23 kts 31°
2026-05-06 17:54 32.01008 34.88222 116 ft 25 kts 31°
2026-05-06 17:54 32.01158 34.88329 117 ft 26 kts 31°
2026-05-06 17:54 32.01307 34.88453 118 ft 27 kts 42°
2026-05-06 17:54 32.01427 34.88629 118 ft 28 kts 59°
2026-05-06 17:55 32.01497 34.88851 120 ft 30 kts 79°
2026-05-06 17:55 32.01530 34.89065 119 ft 20 kts 80°
2026-05-06 17:55 32.01584 34.89162 118 ft 11 kts
2026-05-06 17:55 32.01639 34.89153 117 ft 3 kts 351°
2026-05-06 17:56 32.01678 34.89144 115 ft 10 kts 348°
2026-05-06 17:56 32.01740 34.89130 116 ft 2 kts 349°
2026-05-06 17:56 32.01750 34.89116 116 ft 3 kts 288°
2026-05-06 17:56 32.01747 34.89096 105 ft 0 kts 259°
2026-05-06 17:57 32.01747 34.89095 105 ft 0 kts 259°
2026-05-06 17:57 32.01740 34.89047 118 ft 22 kts 259°
2026-05-06 17:58 32.01670 34.88592 120 ft 89 kts 260°
2026-05-06 17:58 32.01530 34.87678 118 ft 138 kts 259°
2026-05-06 17:58 32.01334 34.86411 223 ft 169 kts 260°
2026-05-06 17:58 32.01100 34.85056 898 ft 168 kts 259°
2026-05-06 17:59 32.00827 34.83702 1535 ft 169 kts 258°
2026-05-06 17:59 32.00549 34.82373 2073 ft 173 kts 258°
2026-05-06 17:59 32.00245 34.80907 2323 ft 195 kts 258°
2026-05-06 17:59 31.99908 34.79267 2555 ft 216 kts 258°
2026-05-06 18:00 31.99536 34.77461 2843 ft 239 kts 258°
2026-05-06 18:00 31.99212 34.75456 3303 ft 256 kts 271°
2026-05-06 18:00 31.99600 34.73408 4111 ft 258 kts 291°
2026-05-06 18:00 32.00229 34.71413 4993 ft 261 kts 290°
2026-05-06 18:01 32.00800 34.69368 5842 ft 265 kts 287°
2026-05-06 18:01 32.01307 34.67270 6665 ft 268 kts 285°
2026-05-06 18:01 32.01794 34.65133 7426 ft 271 kts 284°
2026-05-06 18:01 32.02280 34.62973 8235 ft 274 kts 284°
2026-05-06 18:02 32.02768 34.60799 9045 ft 276 kts 284°
2026-05-06 18:02 32.03262 34.58609 9854 ft 278 kts 284°
2026-05-06 18:02 32.03769 34.56383 10390 ft 289 kts 284°
2026-05-06 18:02 32.04317 34.54006 10554 ft 312 kts 284°
2026-05-06 18:03 32.04904 34.51490 11002 ft 322 kts 284°
2026-05-06 18:03 32.05501 34.48932 11668 ft 325 kts 284°
2026-05-06 18:03 32.06099 34.46361 12379 ft 326 kts 284°
2026-05-06 18:03 32.06698 34.43777 13090 ft 327 kts 284°
2026-05-06 18:04 32.07298 34.41184 13771 ft 329 kts 284°
2026-05-06 18:04 32.07903 34.38578 14372 ft 330 kts 284°
2026-05-06 18:04 32.08511 34.35957 14948 ft 332 kts 284°
2026-05-06 18:04 32.09124 34.33321 15516 ft 335 kts 284°
2026-05-06 18:05 32.09741 34.30665 16081 ft 337 kts 284°
2026-05-06 18:05 32.10360 34.27992 16645 ft 339 kts 283°
2026-05-06 18:05 32.10981 34.25296 17201 ft 342 kts 283°
2026-05-06 18:05 32.11603 34.22582 17757 ft 344 kts 283°
2026-05-06 18:06 32.12229 34.19844 18316 ft 347 kts 283°
2026-05-06 18:06 32.12859 34.17088 18811 ft 349 kts 283°
2026-05-06 18:06 32.13494 34.14309 19317 ft 352 kts 283°
2026-05-06 18:06 32.14135 34.11515 19825 ft 354 kts 283°
2026-05-06 18:07 32.14782 34.08705 20342 ft 356 kts 283°
2026-05-06 18:07 32.15433 34.05877 20826 ft 358 kts 283°
2026-05-06 18:07 32.16085 34.03036 21309 ft 360 kts 283°
2026-05-06 18:07 32.16822 34.00203 21774 ft 363 kts 289°
2026-05-06 18:08 32.17983 33.97532 22226 ft 369 kts 300°
2026-05-06 18:08 32.19469 33.95040 22684 ft 372 kts 302°
2026-05-06 18:08 32.20981 33.92547 23156 ft 374 kts 302°
2026-05-06 18:08 32.22500 33.90044 23608 ft 376 kts 302°
2026-05-06 18:09 32.24025 33.87526 23985 ft 378 kts 302°
2026-05-06 18:09 32.25557 33.84988 24359 ft 380 kts 302°
2026-05-06 18:09 32.27089 33.82442 24771 ft 381 kts 302°
2026-05-06 18:09 32.28624 33.79885 25178 ft 382 kts 302°
2026-05-06 18:10 32.30161 33.77320 25561 ft 383 kts 302°
2026-05-06 18:10 32.31705 33.74748 25933 ft 385 kts 302°
2026-05-06 18:10 32.33256 33.72164 26308 ft 386 kts 302°
2026-05-06 18:10 32.34812 33.69566 26656 ft 388 kts 302°
2026-05-06 18:11 32.36371 33.66957 27009 ft 389 kts 302°
2026-05-06 18:11 32.37916 33.64370 27364 ft 391 kts 302°
2026-05-06 18:11 32.39491 33.61737 27702 ft 393 kts 303°
2026-05-06 18:11 32.41074 33.59093 28060 ft 395 kts 303°
2026-05-06 18:12 32.42663 33.56436 28414 ft 396 kts 303°
2026-05-06 18:12 32.44259 33.53767 28768 ft 398 kts 303°
2026-05-06 18:12 32.45861 33.51085 29112 ft 400 kts 303°
2026-05-06 18:12 32.47471 33.48389 29463 ft 402 kts 303°
2026-05-06 18:13 32.49087 33.45680 29800 ft 403 kts 303°
2026-05-06 18:13 32.50703 33.42966 30241 ft 402 kts 303°
2026-05-06 18:13 32.52314 33.40265 30648 ft 401 kts 303°
2026-05-06 18:13 32.53921 33.37569 31034 ft 400 kts 303°
2026-05-06 18:14 32.55525 33.34873 31403 ft 400 kts 303°
2026-05-06 18:14 32.57123 33.32178 31772 ft 399 kts 303°
2026-05-06 18:14 32.58716 33.29485 32160 ft 399 kts 302°
2026-05-06 18:14 32.60308 33.26795 32541 ft 398 kts 302°
2026-05-06 18:15 32.61897 33.24105 32930 ft 398 kts 302°
2026-05-06 18:15 32.63485 33.21417 33317 ft 398 kts 302°
2026-05-06 18:15 32.65072 33.18735 33694 ft 397 kts 302°
2026-05-06 18:15 32.66660 33.16058 34077 ft 397 kts 303°
2026-05-06 18:16 32.68248 33.13381 34412 ft 396 kts 302°
2026-05-06 18:16 32.69825 33.10707 34715 ft 395 kts 302°
2026-05-06 18:16 32.71401 33.08030 34998 ft 395 kts 302°
2026-05-06 18:16 32.72973 33.05357 35339 ft 394 kts 302°
2026-05-06 18:17 32.74542 33.02694 35666 ft 393 kts 302°
2026-05-06 18:17 32.76108 33.00034 35943 ft 393 kts 302°
2026-05-06 18:17 32.77674 32.97375 36076 ft 394 kts 302°
2026-05-06 18:17 32.79254 32.94691 36099 ft 398 kts 302°
2026-05-06 18:18 32.82438 32.89265 36099 ft 401 kts 302°
2026-05-06 18:18 32.85631 32.83817 36101 ft 402 kts 302°
2026-05-06 18:19 32.88824 32.78362 36102 ft 402 kts 302°
2026-05-06 18:19 32.92020 32.72902 36101 ft 402 kts 302°
2026-05-06 18:20 32.95216 32.67438 36103 ft 402 kts 302°
2026-05-06 18:20 32.98403 32.61968 36103 ft 402 kts 302°
2026-05-06 18:21 33.01588 32.56489 36120 ft 402 kts 302°
2026-05-06 18:21 33.04769 32.51014 36116 ft 402 kts 302°
2026-05-06 18:22 33.07950 32.45531 36113 ft 402 kts 302°
2026-05-06 18:22 33.11111 32.40081 36115 ft 402 kts 302°
2026-05-06 18:23 33.14288 32.34590 36124 ft 402 kts 302°
2026-05-06 18:23 33.17460 32.29091 36136 ft 402 kts 302°
2026-05-06 18:24 33.20633 32.23598 36130 ft 401 kts 302°
2026-05-06 18:24 33.23794 32.18109 36127 ft 401 kts 302°
2026-05-06 18:25 33.26948 32.12619 36125 ft 401 kts 302°
2026-05-06 18:25 33.30100 32.07131 36129 ft 400 kts 302°
2026-05-06 18:26 33.33247 32.01644 36124 ft 400 kts 302°
2026-05-06 18:26 33.36388 31.96153 36120 ft 400 kts 302°
2026-05-06 18:27 33.39525 31.90665 36119 ft 399 kts 302°
2026-05-06 18:27 33.42658 31.85173 36119 ft 400 kts 302°
2026-05-06 18:28 33.45797 31.79678 36114 ft 400 kts 302°
2026-05-06 18:28 33.48932 31.74177 36114 ft 400 kts 302°
2026-05-06 18:29 33.52070 31.68666 36118 ft 400 kts 302°
2026-05-06 18:29 33.54673 31.64076 36119 ft 401 kts 302°
2026-05-06 18:30 33.57804 31.58553 36119 ft 400 kts 302°
2026-05-06 18:30 33.61441 31.52133 36117 ft 400 kts 302°
2026-05-06 18:31 33.64057 31.47500 36143 ft 400 kts 302°
2026-05-06 18:31 33.67175 31.41981 36125 ft 399 kts 302°
2026-05-06 18:32 33.70278 31.36466 36120 ft 398 kts 302°
2026-05-06 18:32 33.73373 31.30954 36120 ft 398 kts 302°
2026-05-06 18:33 33.76452 31.25485 36118 ft 398 kts 302°
2026-05-06 18:33 33.79549 31.19975 36107 ft 398 kts 302°
2026-05-06 18:34 33.82638 31.14457 36119 ft 398 kts 302°
2026-05-06 18:34 33.85724 31.08930 36114 ft 398 kts 302°
2026-05-06 18:35 33.88808 31.03400 36116 ft 398 kts 302°
2026-05-06 18:35 33.91887 30.97863 36111 ft 398 kts 302°
2026-05-06 18:36 33.94969 30.92326 36117 ft 398 kts 302°
2026-05-06 18:36 33.98056 30.86787 36116 ft 398 kts 302°
2026-05-06 18:37 34.01138 30.81241 36112 ft 398 kts 302°
2026-05-06 18:37 34.04204 30.75681 36114 ft 398 kts 302°
2026-05-06 18:38 34.07280 30.70125 36120 ft 398 kts 302°
2026-05-06 18:38 34.10354 30.64569 36134 ft 398 kts 302°
2026-05-06 18:39 34.13420 30.59016 36126 ft 397 kts 302°
2026-05-06 18:40 34.17997 30.50682 36128 ft 397 kts 302°
2026-05-06 18:40 34.21049 30.45131 36120 ft 397 kts 302°
2026-05-06 18:41 34.24100 30.39577 36118 ft 396 kts 303°
2026-05-06 18:41 34.27144 30.34019 36116 ft 397 kts 302°
2026-05-06 18:42 34.30186 30.28449 36117 ft 397 kts 302°
2026-05-06 18:42 34.33232 30.22878 36116 ft 397 kts 302°
2026-05-06 18:43 34.36273 30.17302 36115 ft 397 kts 302°
2026-05-06 18:43 34.39307 30.11714 36113 ft 397 kts 302°
2026-05-06 18:44 34.42319 30.06160 36117 ft 397 kts 302°
2026-05-06 18:44 34.45381 30.00587 36111 ft 398 kts 306°
2026-05-06 18:45 34.49176 29.95698 36115 ft 399 kts 313°
2026-05-06 18:45 34.53075 29.90903 36113 ft 399 kts 313°
2026-05-06 18:46 34.56970 29.86102 36117 ft 399 kts 313°
2026-05-06 18:46 34.60863 29.81291 36112 ft 399 kts 313°
2026-05-06 18:47 34.64755 29.76473 36108 ft 400 kts 313°
2026-05-06 18:47 34.68656 29.71652 36108 ft 400 kts 313°
2026-05-06 18:48 34.72552 29.66821 36111 ft 400 kts 313°
2026-05-06 18:48 34.76448 29.61987 36117 ft 400 kts 313°
2026-05-06 18:49 34.80339 29.57141 36110 ft 400 kts 313°
2026-05-06 18:49 34.84224 29.52291 36130 ft 400 kts 313°
2026-05-06 18:50 34.88114 29.47441 36130 ft 400 kts 313°
2026-05-06 18:50 34.91997 29.42595 36129 ft 399 kts 313°
2026-05-06 18:51 34.95872 29.37745 36120 ft 399 kts 313°
2026-05-06 18:51 34.99823 29.32989 36121 ft 400 kts 320°
2026-05-06 18:52 35.04288 29.28921 36124 ft 401 kts 321°
2026-05-06 18:52 35.08756 29.24849 36108 ft 401 kts 321°
2026-05-06 18:53 35.13224 29.20770 36106 ft 401 kts 321°
2026-05-06 18:53 35.17692 29.16683 36126 ft 401 kts 321°
2026-05-06 18:54 35.22123 29.12616 36127 ft 401 kts 321°
2026-05-06 18:54 35.26609 29.08500 36124 ft 400 kts 321°
2026-05-06 18:55 35.31059 29.04409 36122 ft 400 kts 321°
2026-05-06 18:55 35.35512 29.00324 36120 ft 400 kts 321°
2026-05-06 18:56 35.39958 28.96233 36118 ft 400 kts 321°
2026-05-06 18:56 35.44374 28.92162 36109 ft 400 kts 321°
2026-05-06 18:57 35.48816 28.88060 36119 ft 400 kts 321°
2026-05-06 18:57 35.53254 28.83959 36117 ft 399 kts 321°
2026-05-06 18:58 35.57686 28.79851 36117 ft 399 kts 321°
2026-05-06 18:58 35.62115 28.75739 36115 ft 399 kts 321°
2026-05-06 18:59 35.66541 28.71625 36111 ft 399 kts 321°
2026-05-06 18:59 35.70968 28.67510 36108 ft 399 kts 321°
2026-05-06 19:00 35.75396 28.63398 36117 ft 399 kts 321°
2026-05-06 19:00 35.79820 28.59282 36114 ft 398 kts 321°
2026-05-06 19:01 35.84237 28.55152 36111 ft 398 kts 321°
2026-05-06 19:01 35.88642 28.51018 36108 ft 398 kts 321°
2026-05-06 19:02 35.93054 28.46880 36106 ft 398 kts 321°
2026-05-06 19:02 35.97465 28.42740 36105 ft 398 kts 321°
2026-05-06 19:03 36.01874 28.38603 36105 ft 398 kts 321°
2026-05-06 19:03 36.06283 28.34460 36102 ft 398 kts 321°
2026-05-06 19:04 36.10684 28.30298 36098 ft 398 kts 321°
2026-05-06 19:04 36.15083 28.26136 36087 ft 398 kts 321°
2026-05-06 19:05 36.19487 28.21976 36087 ft 398 kts 321°
2026-05-06 19:05 36.23892 28.17810 36089 ft 398 kts 321°
2026-05-06 19:06 36.28289 28.13636 36077 ft 398 kts 321°
2026-05-06 19:06 36.32686 28.09457 36117 ft 398 kts 321°
2026-05-06 19:07 36.36809 28.04967 36097 ft 397 kts 316°
2026-05-06 19:07 36.40850 28.00296 36092 ft 397 kts 316°
2026-05-06 19:08 36.44891 27.95630 36090 ft 397 kts 316°
2026-05-06 19:08 36.48938 27.90959 36089 ft 397 kts 316°
2026-05-06 19:09 36.52975 27.86279 36092 ft 397 kts 316°
2026-05-06 19:09 36.57014 27.81592 36078 ft 397 kts 316°
2026-05-06 19:10 36.61050 27.76900 36074 ft 397 kts 316°
2026-05-06 19:10 36.65084 27.72205 36102 ft 397 kts 316°
2026-05-06 19:11 36.69115 27.67508 36103 ft 397 kts 316°
2026-05-06 19:11 36.73139 27.62808 36093 ft 397 kts 316°
2026-05-06 19:12 36.77163 27.58098 36099 ft 397 kts 316°
2026-05-06 19:12 36.81187 27.53397 36100 ft 396 kts 316°
2026-05-06 19:13 36.85209 27.48690 36090 ft 396 kts 316°
2026-05-06 19:13 36.89229 27.43973 36087 ft 397 kts 316°
2026-05-06 19:14 36.93250 27.39241 36090 ft 397 kts 316°
2026-05-06 19:14 36.97270 27.34502 36119 ft 397 kts 316°
2026-05-06 19:15 37.01282 27.29766 36124 ft 397 kts 316°
2026-05-06 19:15 37.05292 27.25029 36112 ft 396 kts 316°
2026-05-06 19:16 37.08620 27.21092 36109 ft 396 kts 316°
2026-05-06 19:16 37.12622 27.16352 36103 ft 396 kts 316°
2026-05-06 19:17 37.16624 27.11601 36100 ft 396 kts 316°
2026-05-06 19:17 37.20627 27.06844 36098 ft 397 kts 316°
2026-05-06 19:18 37.24633 27.02082 36111 ft 397 kts 316°
2026-05-06 19:18 37.28630 26.97309 36113 ft 397 kts 316°
2026-05-06 19:19 37.32629 26.92534 36110 ft 396 kts 316°
2026-05-06 19:19 37.36626 26.87757 36110 ft 396 kts 316°
2026-05-06 19:20 37.40626 26.82982 36106 ft 397 kts 317°
2026-05-06 19:20 37.44783 26.78407 36107 ft 397 kts 319°
2026-05-06 19:21 37.49023 26.73942 36107 ft 398 kts 319°
2026-05-06 19:21 37.53243 26.69439 36107 ft 398 kts 319°
2026-05-06 19:22 37.57439 26.64891 36110 ft 398 kts 319°
2026-05-06 19:22 37.61633 26.60340 36108 ft 398 kts 319°
2026-05-06 19:23 37.65826 26.55787 36100 ft 398 kts 319°
2026-05-06 19:23 37.70019 26.51224 36098 ft 398 kts 319°
2026-05-06 19:24 37.74217 26.46651 36101 ft 399 kts 319°
2026-05-06 19:24 37.78421 26.42084 36101 ft 399 kts 319°
2026-05-06 19:25 37.82625 26.37503 36110 ft 399 kts 319°
2026-05-06 19:25 37.86824 26.32915 36104 ft 399 kts 319°
2026-05-06 19:26 37.90989 26.28351 36108 ft 399 kts 319°
2026-05-06 19:26 37.95179 26.23747 36093 ft 399 kts 318°
2026-05-06 19:27 37.99372 26.19135 36093 ft 399 kts 318°
2026-05-06 19:27 38.03562 26.14510 36091 ft 400 kts 318°
2026-05-06 19:28 38.07754 26.09878 36090 ft 400 kts 318°
2026-05-06 19:28 38.11951 26.05242 36103 ft 400 kts 319°
2026-05-06 19:29 38.16148 26.00600 36099 ft 400 kts 318°
2026-05-06 19:29 38.20342 25.95952 36097 ft 400 kts 318°
2026-05-06 19:30 38.24534 25.91298 36083 ft 400 kts 318°
2026-05-06 19:30 38.28848 25.86806 36083 ft 401 kts 321°
2026-05-06 19:31 38.33321 25.82554 36085 ft 401 kts 322°
2026-05-06 19:31 38.40021 25.76147 36096 ft 402 kts 322°
2026-05-06 19:32 38.44454 25.71809 36096 ft 402 kts 322°
2026-05-06 19:32 38.48886 25.67461 36095 ft 402 kts 322°
2026-05-06 19:33 38.53319 25.63119 36084 ft 402 kts 321°
2026-05-06 19:33 38.57756 25.58770 36084 ft 402 kts 321°
2026-05-06 19:34 38.62193 25.54405 36080 ft 402 kts 321°
2026-05-06 19:34 38.66633 25.50040 36083 ft 403 kts 321°
2026-05-06 19:35 38.71071 25.45665 36094 ft 403 kts 321°
2026-05-06 19:35 38.75511 25.41278 36089 ft 403 kts 321°
2026-05-06 19:36 38.79952 25.36890 36088 ft 403 kts 321°
2026-05-06 19:36 38.84393 25.32498 36076 ft 403 kts 321°
2026-05-06 19:37 38.88804 25.28122 36076 ft 404 kts 321°
2026-05-06 19:37 38.93243 25.23701 36072 ft 404 kts 321°
2026-05-06 19:38 38.97687 25.19273 36080 ft 404 kts 321°
2026-05-06 19:38 39.02132 25.14840 36081 ft 404 kts 321°
2026-05-06 19:39 39.06577 25.10406 36079 ft 404 kts 321°
2026-05-06 19:39 39.11018 25.05959 36081 ft 404 kts 321°
2026-05-06 19:40 39.15461 25.01512 36082 ft 404 kts 321°
2026-05-06 19:40 39.19902 24.97051 36069 ft 405 kts 321°
2026-05-06 19:41 39.24342 24.92578 36075 ft 405 kts 321°
2026-05-06 19:41 39.28789 24.88109 36073 ft 405 kts 321°
2026-05-06 19:42 39.33234 24.83636 36073 ft 405 kts 321°
2026-05-06 19:42 39.37677 24.79153 36074 ft 405 kts 321°
2026-05-06 19:43 39.42113 24.74657 36075 ft 405 kts 321°
2026-05-06 19:43 39.46553 24.70161 36077 ft 405 kts 321°
2026-05-06 19:44 39.50992 24.65664 36082 ft 405 kts 321°
2026-05-06 19:44 39.55423 24.61164 36081 ft 405 kts 321°
2026-05-06 19:45 39.59851 24.56655 36080 ft 405 kts 321°
2026-05-06 19:45 39.64276 24.52144 36080 ft 405 kts 321°
2026-05-06 19:46 39.68697 24.47621 36079 ft 404 kts 321°
2026-05-06 19:46 39.73111 24.43093 36077 ft 404 kts 321°
2026-05-06 19:47 39.77526 24.38558 36073 ft 404 kts 321°
2026-05-06 19:47 39.81940 24.34027 36071 ft 404 kts 321°
2026-05-06 19:48 39.86356 24.29490 36075 ft 404 kts 321°
2026-05-06 19:48 39.90768 24.24946 36075 ft 404 kts 321°
2026-05-06 19:49 39.95180 24.20400 36077 ft 404 kts 320°
2026-05-06 19:49 39.99583 24.15837 36076 ft 404 kts 320°
2026-05-06 19:50 40.03983 24.11267 36085 ft 404 kts 320°
2026-05-06 19:50 40.08384 24.06699 36071 ft 404 kts 320°
2026-05-06 19:51 40.12781 24.02128 36068 ft 404 kts 320°
2026-05-06 19:51 40.17184 23.97551 36067 ft 404 kts 320°
2026-05-06 19:52 40.21579 23.92964 36069 ft 404 kts 320°
2026-05-06 19:52 40.25973 23.88366 36067 ft 404 kts 320°
2026-05-06 19:53 40.30366 23.83766 36069 ft 404 kts 320°
2026-05-06 19:53 40.34760 23.79159 36069 ft 404 kts 320°
2026-05-06 19:54 40.39151 23.74549 36057 ft 404 kts 320°
2026-05-06 19:54 40.43542 23.69930 36059 ft 404 kts 320°
2026-05-06 19:55 40.47924 23.65306 36064 ft 404 kts 320°
2026-05-06 19:55 40.52310 23.60675 36069 ft 404 kts 320°
2026-05-06 19:56 40.56692 23.56041 36084 ft 404 kts 320°
2026-05-06 19:56 40.61077 23.51413 36080 ft 404 kts 320°
2026-05-06 19:57 40.65452 23.46768 36075 ft 404 kts 319°
2026-05-06 19:57 40.69793 23.42144 36061 ft 404 kts 319°
2026-05-06 19:58 40.74157 23.37491 36070 ft 403 kts 319°
2026-05-06 19:58 40.78516 23.32839 36073 ft 403 kts 319°
2026-05-06 19:59 40.82872 23.28191 36083 ft 403 kts 319°
2026-05-06 19:59 40.87220 23.23530 36076 ft 403 kts 319°
2026-05-06 20:00 40.91569 23.18871 36075 ft 402 kts 319°
2026-05-06 20:00 40.95921 23.14213 36074 ft 402 kts 319°
2026-05-06 20:01 41.00261 23.09540 36068 ft 402 kts 319°
2026-05-06 20:01 41.03865 23.05646 36067 ft 403 kts 319°
2026-05-06 20:02 41.08207 23.00957 36077 ft 403 kts 319°
2026-05-06 20:02 41.12109 22.95675 36071 ft 401 kts 309°
2026-05-06 20:03 41.15711 22.90019 36066 ft 402 kts 309°
2026-05-06 20:03 41.19318 22.84352 36063 ft 402 kts 309°
2026-05-06 20:04 41.22925 22.78670 36063 ft 402 kts 309°
2026-05-06 20:04 41.26560 22.73024 36060 ft 402 kts 311°
2026-05-06 20:05 41.30333 22.67531 36063 ft 402 kts 312°
2026-05-06 20:05 41.34135 22.62076 36064 ft 402 kts 311°
2026-05-06 20:06 41.37910 22.56582 36067 ft 402 kts 311°
2026-05-06 20:06 41.41658 22.51056 36066 ft 402 kts 311°
2026-05-06 20:07 41.45406 22.45524 36051 ft 402 kts 311°
2026-05-06 20:07 41.49155 22.39988 36052 ft 402 kts 311°
2026-05-06 20:08 41.52907 22.34452 36048 ft 402 kts 311°
2026-05-06 20:08 41.56657 22.28911 36035 ft 402 kts 311°
2026-05-06 20:09 41.60403 22.23362 36042 ft 402 kts 311°
2026-05-06 20:09 41.64118 22.17843 36037 ft 402 kts 311°
2026-05-06 20:10 41.67858 22.12273 36024 ft 402 kts 310°
2026-05-06 20:10 41.71594 22.06697 36025 ft 402 kts 310°
2026-05-06 20:11 41.75332 22.01121 36019 ft 402 kts 310°
2026-05-06 20:11 41.79056 21.95536 36021 ft 402 kts 310°
2026-05-06 20:12 41.82776 21.89944 36024 ft 402 kts 310°
2026-05-06 20:12 41.86500 21.84351 36025 ft 402 kts 310°
2026-05-06 20:13 41.90217 21.78756 36036 ft 401 kts 310°
2026-05-06 20:13 41.93921 21.73163 36050 ft 400 kts 310°
2026-05-06 20:14 41.97621 21.67582 36050 ft 399 kts 310°
2026-05-06 20:14 42.01308 21.62006 36045 ft 399 kts 310°
2026-05-06 20:15 42.04988 21.56426 36042 ft 398 kts 310°
2026-05-06 20:15 42.08655 21.50841 36030 ft 398 kts 310°
2026-05-06 20:16 42.12319 21.45250 36031 ft 398 kts 310°
2026-05-06 20:16 42.15980 21.39660 36042 ft 398 kts 310°
2026-05-06 20:17 42.19596 21.34022 36046 ft 398 kts 309°
2026-05-06 20:17 42.23172 21.28325 36045 ft 398 kts 309°
2026-05-06 20:18 42.26743 21.22620 36046 ft 398 kts 309°
2026-05-06 20:18 42.30324 21.16918 36052 ft 398 kts 309°
2026-05-06 20:19 42.33894 21.11213 36077 ft 397 kts 308°
2026-05-06 20:19 42.37463 21.05510 36084 ft 397 kts 309°
2026-05-06 20:20 42.41026 20.99822 36094 ft 396 kts 308°
2026-05-06 20:20 42.44548 20.94169 36096 ft 395 kts 308°
2026-05-06 20:21 42.48111 20.88442 36094 ft 395 kts 308°
2026-05-06 20:21 42.51629 20.82791 36078 ft 395 kts 308°
2026-05-06 20:22 42.55168 20.77093 36083 ft 395 kts 308°
2026-05-06 20:22 42.58690 20.71394 36087 ft 394 kts 308°
2026-05-06 20:23 42.62199 20.65701 36077 ft 393 kts 308°
2026-05-06 20:23 42.65705 20.60019 36059 ft 392 kts 308°
2026-05-06 20:24 42.69203 20.54329 36061 ft 392 kts 308°
2026-05-06 20:24 42.72691 20.48639 36059 ft 392 kts 308°
2026-05-06 20:25 42.76179 20.42948 36076 ft 391 kts 307°
2026-05-06 20:25 42.79661 20.37258 36066 ft 391 kts 307°
2026-05-06 20:26 42.83142 20.31558 36065 ft 391 kts 307°
2026-05-06 20:26 42.86684 20.25915 36059 ft 392 kts 308°
2026-05-06 20:27 42.90299 20.20351 36059 ft 392 kts 309°
2026-05-06 20:27 42.93915 20.14787 36058 ft 392 kts 308°
2026-05-06 20:28 42.97511 20.09201 36065 ft 392 kts 308°
2026-05-06 20:28 43.01093 20.03600 36064 ft 391 kts 307°
2026-05-06 20:29 43.04664 19.97994 36063 ft 391 kts 307°
2026-05-06 20:29 43.08231 19.92391 36058 ft 391 kts 307°
2026-05-06 20:30 43.13584 19.83983 36048 ft 391 kts 307°
2026-05-06 20:31 43.17153 19.78374 36055 ft 391 kts 307°
2026-05-06 20:31 43.20717 19.72737 36046 ft 391 kts 307°
2026-05-06 20:32 43.24282 19.67093 36047 ft 392 kts 307°
2026-05-06 20:32 43.27848 19.61432 36045 ft 392 kts 307°
2026-05-06 20:33 43.31414 19.55760 36050 ft 392 kts 306°
2026-05-06 20:33 43.34972 19.50076 36045 ft 392 kts 307°
2026-05-06 20:34 43.38536 19.44391 36051 ft 393 kts 306°
2026-05-06 20:34 43.42111 19.38702 36041 ft 393 kts 306°
2026-05-06 20:35 43.45672 19.32996 36039 ft 393 kts 306°
2026-05-06 20:35 43.49231 19.27276 36038 ft 393 kts 306°
2026-05-06 20:36 43.52793 19.21552 36045 ft 393 kts 306°
2026-05-06 20:36 43.56357 19.15831 36046 ft 394 kts 306°
2026-05-06 20:37 43.59895 19.10128 36043 ft 394 kts 306°
2026-05-06 20:37 43.63449 19.04376 36034 ft 394 kts 306°
2026-05-06 20:38 43.67026 18.98574 36034 ft 394 kts 306°
2026-05-06 20:38 43.70556 18.92843 36043 ft 394 kts 305°
2026-05-06 20:39 43.74129 18.87031 36026 ft 394 kts 305°
2026-05-06 20:39 43.77675 18.81251 36010 ft 395 kts 305°
2026-05-06 20:40 43.81221 18.75444 36030 ft 395 kts 305°
2026-05-06 20:40 43.84769 18.69636 36031 ft 395 kts 305°
2026-05-06 20:41 43.88293 18.63864 36041 ft 396 kts 305°
2026-05-06 20:41 43.91847 18.58032 36034 ft 396 kts 305°
2026-05-06 20:42 43.95394 18.52183 36040 ft 397 kts 305°
2026-05-06 20:42 43.98938 18.46310 36030 ft 397 kts 304°
2026-05-06 20:43 44.02487 18.40435 36032 ft 397 kts 305°
2026-05-06 20:43 44.06044 18.34556 36020 ft 398 kts 305°
2026-05-06 20:44 44.09599 18.28664 36026 ft 398 kts 305°
2026-05-06 20:44 44.13145 18.22758 36018 ft 398 kts 304°
2026-05-06 20:45 44.16689 18.16849 35997 ft 397 kts 305°
2026-05-06 20:45 44.20228 18.10935 36017 ft 398 kts 304°
2026-05-06 20:46 44.23779 18.05006 36000 ft 399 kts 304°
2026-05-06 20:46 44.26730 18.00064 35983 ft 399 kts 304°
2026-05-06 20:47 44.30276 17.94100 35983 ft 400 kts 304°
2026-05-06 20:47 44.33823 17.88120 35983 ft 400 kts 304°
2026-05-06 20:48 44.37367 17.82131 35986 ft 400 kts 304°
2026-05-06 20:48 44.40921 17.76131 35984 ft 401 kts 304°
2026-05-06 20:49 44.44473 17.70123 35983 ft 401 kts 304°
2026-05-06 20:49 44.48013 17.64101 35973 ft 401 kts 304°
2026-05-06 20:50 44.51554 17.58068 35968 ft 401 kts 304°
2026-05-06 20:50 44.55101 17.52029 35980 ft 402 kts 304°
2026-05-06 20:51 44.58648 17.45966 35963 ft 402 kts 304°
2026-05-06 20:51 44.62196 17.39886 35959 ft 403 kts 304°
2026-05-06 20:52 44.65744 17.33789 35967 ft 403 kts 304°
2026-05-06 20:52 44.69289 17.27689 35965 ft 403 kts 304°
2026-05-06 20:53 44.72838 17.21579 35976 ft 403 kts 303°
2026-05-06 20:53 44.76386 17.15457 35955 ft 404 kts 303°
2026-05-06 20:54 44.79937 17.09315 35953 ft 404 kts 303°
2026-05-06 20:54 44.83484 17.03160 35955 ft 405 kts 303°
2026-05-06 20:55 44.87005 16.97031 35972 ft 405 kts 303°
2026-05-06 20:55 44.90576 16.90804 35961 ft 406 kts 303°
2026-05-06 20:56 44.94133 16.84593 35945 ft 407 kts 303°
2026-05-06 20:56 44.97693 16.78364 35941 ft 408 kts 303°
2026-05-06 20:57 45.01254 16.72120 35942 ft 408 kts 303°
2026-05-06 20:57 45.04814 16.65858 35955 ft 409 kts 303°
2026-05-06 20:58 45.08384 16.59576 35939 ft 411 kts 303°
2026-05-06 20:58 45.11943 16.53305 35935 ft 412 kts 303°
2026-05-06 20:59 45.15523 16.46971 35938 ft 413 kts 303°
2026-05-06 20:59 45.19110 16.40615 35940 ft 413 kts 303°
2026-05-06 21:00 45.22691 16.34236 35953 ft 414 kts 303°
2026-05-06 21:00 45.26283 16.27832 35940 ft 415 kts 303°
2026-05-06 21:01 45.29883 16.21404 35942 ft 416 kts 303°
2026-05-06 21:01 45.33484 16.14957 35943 ft 417 kts 303°
2026-05-06 21:02 45.37092 16.08497 35944 ft 417 kts 303°
2026-05-06 21:02 45.40697 16.02020 35959 ft 418 kts 303°
2026-05-06 21:03 45.44290 15.95543 35954 ft 418 kts 303°
2026-05-06 21:03 45.47908 15.89011 35950 ft 419 kts 303°
2026-05-06 21:04 45.51513 15.82479 35948 ft 419 kts 303°
2026-05-06 21:04 45.55116 15.75936 35979 ft 419 kts 302°
2026-05-06 21:05 45.58716 15.69387 35969 ft 420 kts 302°
2026-05-06 21:05 45.62320 15.62830 35962 ft 420 kts 302°
2026-05-06 21:06 45.65919 15.56266 35959 ft 420 kts 302°
2026-05-06 21:06 45.69509 15.49683 35959 ft 420 kts 302°
2026-05-06 21:07 45.73070 15.43137 35952 ft 419 kts 302°
2026-05-06 21:07 45.76652 15.36544 35950 ft 420 kts 302°
2026-05-06 21:08 45.80262 15.29974 35946 ft 420 kts 302°
2026-05-06 21:08 45.83927 15.23446 35947 ft 420 kts 303°
2026-05-06 21:09 45.87594 15.16914 35951 ft 420 kts 302°
2026-05-06 21:09 45.91287 15.10270 35943 ft 434 kts 302°
2026-05-06 21:10 45.95079 15.03404 35957 ft 441 kts 302°
2026-05-06 21:10 45.98907 14.96497 35954 ft 442 kts 303°
2026-05-06 21:11 46.02733 14.89578 35951 ft 442 kts 303°
2026-05-06 21:11 46.06552 14.82639 35969 ft 442 kts 302°
2026-05-06 21:12 46.10358 14.75683 35945 ft 442 kts 302°
2026-05-06 21:12 46.14174 14.68717 35940 ft 443 kts 302°
2026-05-06 21:13 46.17992 14.61739 35937 ft 443 kts 302°
2026-05-06 21:13 46.21809 14.54739 35937 ft 444 kts 302°
2026-05-06 21:14 46.25621 14.47729 35959 ft 444 kts 302°
2026-05-06 21:14 46.29430 14.40695 35950 ft 444 kts 302°
2026-05-06 21:15 46.33236 14.33645 35949 ft 445 kts 302°
2026-05-06 21:15 46.37041 14.26578 35943 ft 445 kts 302°
2026-05-06 21:16 46.40845 14.19508 35937 ft 445 kts 302°
2026-05-06 21:16 46.44654 14.12425 35965 ft 446 kts 302°
2026-05-06 21:17 46.48458 14.05326 35941 ft 445 kts 302°
2026-05-06 21:17 46.52251 13.98218 35936 ft 445 kts 302°
2026-05-06 21:18 46.56038 13.91097 35935 ft 445 kts 302°
2026-05-06 21:18 46.59820 13.83964 35956 ft 446 kts 301°
2026-05-06 21:19 46.63599 13.76813 35943 ft 446 kts 301°
2026-05-06 21:19 46.67373 13.69657 35940 ft 446 kts 301°
2026-05-06 21:20 46.71153 13.62495 35940 ft 446 kts 301°
2026-05-06 21:20 46.74928 13.55317 35937 ft 446 kts 301°
2026-05-06 21:21 46.78698 13.48139 35960 ft 447 kts 301°
2026-05-06 21:21 46.82483 13.40922 35963 ft 448 kts 301°
2026-05-06 21:22 46.86260 13.33684 35957 ft 448 kts 301°
2026-05-06 21:22 46.90031 13.26436 35953 ft 448 kts 301°
2026-05-06 21:23 46.93794 13.19175 35973 ft 448 kts 300°
2026-05-06 21:23 46.97557 13.11901 35939 ft 448 kts 300°
2026-05-06 21:24 47.01319 13.04606 35926 ft 449 kts 301°
2026-05-06 21:24 47.05088 12.97302 35915 ft 449 kts 300°
2026-05-06 21:25 47.08848 12.89988 35905 ft 450 kts 300°
2026-05-06 21:25 47.12603 12.82639 35921 ft 451 kts 300°
2026-05-06 21:26 47.16341 12.75316 35905 ft 452 kts 300°
2026-05-06 21:26 47.20112 12.67923 35889 ft 452 kts 300°
2026-05-06 21:27 47.23879 12.60500 35881 ft 453 kts 300°
2026-05-06 21:27 47.27646 12.53054 35895 ft 453 kts 300°
2026-05-06 21:28 47.31410 12.45599 35902 ft 454 kts 300°
2026-05-06 21:28 47.35202 12.38076 35894 ft 454 kts 300°
2026-05-06 21:28 47.37232 12.34550 35889 ft 463 kts 312°
2026-05-06 21:29 47.39683 12.31447 35894 ft 463 kts 310°
2026-05-06 21:29 47.44017 12.24531 35891 ft 458 kts 305°
2026-05-06 21:30 47.48166 12.17383 35890 ft 458 kts 304°
2026-05-06 21:30 47.52325 12.10239 35899 ft 459 kts 305°
2026-05-06 21:31 47.56540 12.03147 35900 ft 459 kts 305°
2026-05-06 21:31 47.60085 11.97217 35922 ft 459 kts 306°
2026-05-06 21:32 47.64312 11.90123 35914 ft 459 kts 306°
2026-05-06 21:32 47.70632 11.79423 35927 ft 460 kts 306°
2026-05-06 21:33 47.74832 11.72259 35916 ft 460 kts 306°
2026-05-06 21:33 47.79038 11.65088 35909 ft 460 kts 306°
2026-05-06 21:34 47.83247 11.57903 35914 ft 459 kts 306°
2026-05-06 21:34 47.85320 11.54362 35747 ft 449 kts 305°
2026-05-06 21:34 47.87358 11.50874 35510 ft 443 kts 305°
2026-05-06 21:35 47.89371 11.47413 35296 ft 442 kts 305°
2026-05-06 21:35 47.91352 11.43997 35058 ft 442 kts 305°
2026-05-06 21:35 47.93360 11.40529 34816 ft 442 kts 305°
2026-05-06 21:35 47.95370 11.37057 34577 ft 442 kts 305°
2026-05-06 21:36 47.97379 11.33593 34341 ft 441 kts 305°
2026-05-06 21:36 47.99386 11.30128 34104 ft 441 kts 305°
2026-05-06 21:36 48.01384 11.26671 33642 ft 438 kts 305°
2026-05-06 21:36 48.03366 11.23238 33103 ft 435 kts 305°
2026-05-06 21:37 48.05335 11.19825 32550 ft 432 kts 305°
2026-05-06 21:37 48.07304 11.16407 32019 ft 437 kts 305°
2026-05-06 21:37 48.09291 11.12948 31484 ft 440 kts 304°
2026-05-06 21:37 48.11286 11.09467 30858 ft 441 kts 304°
2026-05-06 21:38 48.13284 11.05969 30262 ft 443 kts 304°
2026-05-06 21:38 48.15289 11.02461 29582 ft 444 kts 304°
2026-05-06 21:38 48.17300 10.98944 28932 ft 446 kts 305°
2026-05-06 21:38 48.19320 10.95411 28276 ft 448 kts 305°
2026-05-06 21:39 48.21355 10.91846 27576 ft 451 kts 306°
2026-05-06 21:39 48.23398 10.88261 26861 ft 454 kts 306°
2026-05-06 21:39 48.25455 10.84645 26109 ft 457 kts 306°
2026-05-06 21:39 48.27525 10.81000 25311 ft 460 kts 307°
2026-05-06 21:40 48.29607 10.77324 24513 ft 464 kts 307°
2026-05-06 21:40 48.31704 10.73614 23462 ft 469 kts 307°
2026-05-06 21:40 48.33818 10.69877 22427 ft 468 kts 307°
2026-05-06 21:40 48.35915 10.66176 21587 ft 462 kts 307°
2026-05-06 21:41 48.37984 10.62516 20728 ft 457 kts 307°
2026-05-06 21:41 48.40033 10.58887 19872 ft 452 kts 307°
2026-05-06 21:41 48.42061 10.55295 19037 ft 449 kts 307°
2026-05-06 21:41 48.44073 10.51718 18195 ft 445 kts 307°
2026-05-06 21:42 48.46058 10.48183 17446 ft 439 kts 307°
2026-05-06 21:42 48.48015 10.44686 16663 ft 433 kts 307°
2026-05-06 21:42 48.49941 10.41240 15941 ft 427 kts 307°
2026-05-06 21:42 48.51840 10.37838 15222 ft 421 kts 307°
2026-05-06 21:43 48.53713 10.34479 14543 ft 415 kts 307°
2026-05-06 21:43 48.55559 10.31168 13855 ft 410 kts 307°
2026-05-06 21:43 48.57381 10.27892 13122 ft 405 kts 307°
2026-05-06 21:43 48.59182 10.24656 12416 ft 400 kts 307°
2026-05-06 21:44 48.60960 10.21464 11696 ft 395 kts 307°
2026-05-06 21:44 48.62713 10.18310 11129 ft 388 kts 307°
2026-05-06 21:44 48.64413 10.15242 10884 ft 372 kts 307°
2026-05-06 21:44 48.66034 10.12316 10629 ft 355 kts 307°
2026-05-06 21:45 48.67582 10.09493 10386 ft 343 kts 304°
2026-05-06 21:45 48.68795 10.06441 10144 ft 335 kts 291°
2026-05-06 21:45 48.69514 10.03122 9931 ft 331 kts 279°
2026-05-06 21:45 48.69917 9.99704 9800 ft 324 kts 278°
2026-05-06 21:46 48.70306 9.96419 9673 ft 310 kts 278°
2026-05-06 21:46 48.70681 9.93273 9534 ft 298 kts 278°
2026-05-06 21:46 48.71044 9.90248 9401 ft 287 kts 278°
2026-05-06 21:46 48.71394 9.87327 9267 ft 277 kts 278°
2026-05-06 21:47 48.71737 9.84463 8915 ft 276 kts 278°
2026-05-06 21:47 48.72075 9.81610 8499 ft 277 kts 278°
2026-05-06 21:47 48.72411 9.78773 8226 ft 272 kts 278°
2026-05-06 21:47 48.72743 9.75963 7884 ft 271 kts 278°
2026-05-06 21:48 48.73070 9.73183 7417 ft 266 kts 278°
2026-05-06 21:48 48.73392 9.70438 6796 ft 264 kts 278°
2026-05-06 21:48 48.73711 9.67713 6210 ft 261 kts 279°
2026-05-06 21:48 48.74025 9.65032 5762 ft 252 kts 279°
2026-05-06 21:49 48.74321 9.62523 5655 ft 232 kts 279°
2026-05-06 21:49 48.74597 9.60171 5554 ft 224 kts 279°
2026-05-06 21:49 48.74864 9.57859 5456 ft 222 kts 279°
2026-05-06 21:49 48.75097 9.55548 5340 ft 221 kts 271°
2026-05-06 21:50 48.74837 9.53274 5109 ft 220 kts 255°
2026-05-06 21:50 48.74413 9.51055 4838 ft 219 kts 255°
2026-05-06 21:50 48.73994 9.48845 4549 ft 218 kts 255°
2026-05-06 21:50 48.73585 9.46657 4246 ft 213 kts 255°
2026-05-06 21:51 48.73192 9.44558 3971 ft 202 kts 255°
2026-05-06 21:51 48.72819 9.42560 3694 ft 192 kts 255°
2026-05-06 21:51 48.72464 9.40665 3456 ft 183 kts 255°
2026-05-06 21:51 48.72130 9.38883 3234 ft 170 kts 255°
2026-05-06 21:52 48.71815 9.37206 2988 ft 160 kts 254°
2026-05-06 21:52 48.71526 9.35666 2785 ft 144 kts 253°
2026-05-06 21:52 48.71262 9.34262 2632 ft 134 kts 253°
2026-05-06 21:52 48.71007 9.32918 2499 ft 132 kts 253°
2026-05-06 21:53 48.70755 9.31582 2254 ft 132 kts 253°
2026-05-06 21:53 48.70504 9.30245 2027 ft 133 kts 252°
2026-05-06 21:53 48.70254 9.28907 1828 ft 132 kts 253°
2026-05-06 21:53 48.70001 9.27582 1669 ft 131 kts 253°
2026-05-06 21:54 48.69753 9.26238 1481 ft 133 kts 253°
2026-05-06 21:54 48.69499 9.24905 1306 ft 130 kts 253°
2026-05-06 21:54 48.69256 9.23614 1206 ft 116 kts 254°
2026-05-06 21:54 48.69078 9.22677 1223 ft 72 kts 254°
2026-05-06 21:55 48.68967 9.22087 1243 ft 43 kts 255°
2026-05-06 21:55 48.68946 9.21747 1247 ft 28 kts 276°
2026-05-06 21:55 48.68986 9.21477 1256 ft 25 kts 284°
2026-05-06 21:55 48.69027 9.21233 1266 ft 23 kts 285°
2026-05-06 21:56 48.69022 9.21001 1271 ft 22 kts 254°
2026-05-06 21:56 48.68979 9.20777 1276 ft 22 kts 254°
2026-05-06 21:56 48.68937 9.20554 1282 ft 22 kts 253°
2026-05-06 21:56 48.68895 9.20336 1288 ft 21 kts 254°
2026-05-06 21:57 48.68854 9.20121 1293 ft 21 kts 253°
2026-05-06 21:57 48.68820 9.19971 1296 ft 13 kts 255°
2026-05-06 21:57 48.68864 9.19885 1301 ft 11 kts 341°
2026-05-06 21:57 48.68893 9.19818 1304 ft 7 kts 259°
2026-05-06 21:58 48.68876 9.19744 1307 ft 8 kts 253°
2026-05-06 21:58 48.68859 9.19654 1309 ft 7 kts 253°
2026-05-06 21:58 48.68867 9.19607 1310 ft 5 kts 326°
2026-05-06 21:58 48.68894 9.19594 1312 ft 4 kts 343°
2026-05-06 21:59 48.68912 9.19586 1314 ft 2 kts 345°
2026-05-06 21:59 48.68924 9.19581 1314 ft 1 kts 344°